GW5265 Weather Reports


Display with metric or nautical units.
time (UTC)temp
F
wind
direction
speed
MPH
gust
MPH
rain 1hr
in
rain 24hr
in
rain mn
in
humidity
%
barometer
mb
20260505035317 56 225 0.0 0.0 0.00 0.00 0.00 71 1011.2
20260505034814 57 228 0.0 0.0 0.00 0.00 0.00 69 1011.3
20260505034311 56 234 0.0 0.0 0.00 0.00 0.00 70 1011.2
20260505033808 56 237 0.0 0.0 0.00 0.00 0.00 72 1011.3
20260505033305 56 260 0.0 0.0 0.00 0.00 0.00 73 1011.3
20260505032803 56 253 0.0 0.0 0.00 0.00 0.00 72 1011.2
20260505032259 56 237 0.0 0.0 0.00 0.00 0.00 72 1011.5
20260505031756 56 280 0.0 0.0 0.00 0.00 0.00 72 1011.3
20260505031253 56 242 0.0 0.0 0.00 0.00 0.00 72 1011.2
20260505030750 57 244 0.0 0.0 0.00 0.00 0.00 71 1011.4
20260505030246 57 244 0.0 0.0 0.00 0.00 0.00 70 1011.2
20260505025741 57 241 0.0 0.0 0.00 0.00 0.00 71 1011.3
20260505025240 56 284 0.0 0.0 0.00 0.00 0.00 71 1011.4
20260505024738 56 279 0.0 0.0 0.00 0.00 0.00 72 1011.2
20260505024235 56 239 0.0 0.0 0.00 0.00 0.00 72 1011.3
20260505023732 56 268 0.0 0.0 0.00 0.00 0.00 71 1011.3
20260505023229 57 252 0.0 0.0 0.00 0.00 0.00 70 1011.4
20260505022726 57 252 0.0 0.0 0.00 0.00 0.00 70 1011.3
20260505022223 57 252 0.0 0.0 0.00 0.00 0.00 68 1011.2
20260505021720 58 280 0.0 0.0 0.00 0.00 0.00 68 1011.2
20260505021217 58 273 0.0 0.0 0.00 0.00 0.00 67 1011.4
20260505020713 59 257 0.0 0.0 0.00 0.00 0.00 65 1011.3
20260505020208 60 262 0.0 0.0 0.00 0.00 0.00 64 1011.5
20260505015706 61 260 0.0 0.0 0.00 0.00 0.00 61 1011.3
20260505015203 62 278 0.0 0.0 0.00 0.00 0.00 60 1011.5
20260505014659 62 88 0.0 0.0 0.00 0.00 0.00 60 1011.6
20260505014156 62 218 0.0 0.0 0.00 0.00 0.00 60 1011.5
20260505013654 62 67 0.0 0.0 0.00 0.00 0.00 59 1011.6
20260505013151 62 141 0.0 0.0 0.00 0.00 0.00 59 1011.5
20260505012649 63 215 1.0 2.0 0.00 0.00 0.00 59 1011.6
20260505012146 64 226 0.0 0.0 0.00 0.00 0.00 58 1011.5
20260505011641 65 195 1.0 3.0 0.00 0.00 0.00 58 1011.4
20260505011139 64 87 2.0 2.0 0.00 0.00 0.00 57 1011.3
20260505010639 64 85 2.0 2.0 0.00 0.00 0.00 57 1011.3
20260505010136 66 276 0.0 2.0 0.00 0.00 0.00 57 1011.4
20260505005632 66 109 0.0 1.0 0.00 0.00 0.00 55 1010.9
20260505005129 66 96 1.0 2.0 0.00 0.00 0.00 55 1011.0
20260505004627 66 76 0.0 1.0 0.00 0.00 0.00 56 1010.9
20260505004123 66 334 0.0 0.0 0.00 0.00 0.00 56 1010.9
20260505003620 66 254 3.0 4.0 0.00 0.00 0.00 55 1010.9
20260505003118 66 44 0.0 0.0 0.00 0.00 0.00 57 1010.9
20260505002614 66 318 0.0 3.0 0.00 0.00 0.00 56 1011.0
20260505002112 66 100 0.0 1.0 0.00 0.00 0.00 57 1010.7
20260505001609 65 130 0.0 6.0 0.00 0.00 0.00 57 1010.8
20260505001107 65 239 0.0 0.0 0.00 0.00 0.00 58 1010.8
20260505000603 66 59 0.0 2.0 0.00 0.00 0.00 57 1010.7
20260504235557 67 132 2.0 3.0 0.00 0.00 0.00 54 1010.6
20260504235054 67 162 1.0 3.0 0.00 0.00 0.00 54 1010.8
20260504234551 67 83 0.0 2.0 0.00 0.00 0.00 56 1010.7
20260504234049 68 131 0.0 0.0 0.00 0.00 0.00 55 1010.9
20260504233544 68 84 2.0 2.0 0.00 0.00 0.00 53 1010.7
20260504233041 68 52 0.0 1.0 0.00 0.00 0.00 54 1010.7
20260504232538 68 44 2.0 2.0 0.00 0.00 0.00 52 1010.7
20260504232036 68 334 0.0 2.0 0.00 0.00 0.00 52 1010.7
20260504231532 69 286 1.0 2.0 0.00 0.00 0.00 53 1010.8
20260504231028 70 250 2.0 3.0 0.00 0.00 0.00 50 1010.6
20260504230524 71 249 4.0 7.0 0.00 0.00 0.00 48 1010.8
20260504230023 71 290 1.0 7.0 0.00 0.00 0.00 48 1010.7
20260504225520 71 331 5.0 7.0 0.00 0.00 0.00 51 1010.6
20260504225017 70 92 0.0 1.0 0.00 0.00 0.00 52 1010.7
20260504224514 69 306 2.0 8.0 0.00 0.00 0.00 51 1010.9
20260504224011 70 329 4.0 6.0 0.00 0.00 0.00 49 1010.7
20260504223507 71 275 8.0 10.0 0.00 0.00 0.00 48 1010.7
20260504223003 70 338 3.0 7.0 0.00 0.00 0.00 49 1010.8
20260504222500 70 65 6.0 11.0 0.00 0.00 0.00 49 1010.9
20260504221958 70 309 2.0 13.0 0.00 0.00 0.00 49 1010.9
20260504221455 70 7 0.0 1.0 0.00 0.00 0.00 51 1010.8
20260504220952 71 241 3.0 7.0 0.00 0.00 0.00 48 1010.7
20260504220448 71 316 2.0 7.0 0.00 0.00 0.00 49 1010.6
20260504215945 71 266 1.0 6.0 0.00 0.00 0.00 47 1010.5
20260504215442 71 61 2.0 4.0 0.00 0.00 0.00 50 1010.5
20260504214938 71 271 7.0 9.0 0.00 0.00 0.00 49 1010.6
20260504214435 72 321 6.0 10.0 0.00 0.00 0.00 48 1010.5
20260504213932 73 301 5.0 14.0 0.00 0.00 0.00 48 1010.2
20260504213427 73 320 4.0 10.0 0.00 0.00 0.00 47 1010.1
20260504212925 73 329 4.0 9.0 0.00 0.00 0.00 46 1010.2
20260504212421 74 325 2.0 6.0 0.00 0.00 0.00 48 1010.4
20260504211919 74 134 2.0 4.0 0.00 0.00 0.00 45 1010.2
20260504211415 73 20 4.0 8.0 0.00 0.00 0.00 46 1010.3
20260504210912 73 306 1.0 6.0 0.00 0.00 0.00 46 1010.3
20260504210409 71 63 2.0 6.0 0.00 0.00 0.00 47 1010.3
20260504205906 73 192 2.0 3.0 0.00 0.00 0.00 48 1010.3
20260504205404 74 221 3.0 8.0 0.00 0.00 0.00 43 1010.3
20260504204902 72 4 2.0 8.0 0.00 0.00 0.00 47 1010.2
20260504204400 74 313 5.0 9.0 0.00 0.00 0.00 49 1010.0
20260504203859 75 357 3.0 6.0 0.00 0.00 0.00 45 1010.2
20260504203356 75 249 5.0 8.0 0.00 0.00 0.00 44 1010.1
20260504202852 74 344 2.0 4.0 0.00 0.00 0.00 45 1010.2
20260504202349 73 266 4.0 7.0 0.00 0.00 0.00 45 1010.4
20260504201845 72 313 8.0 13.0 0.00 0.00 0.00 48 1010.2
20260504201343 74 276 4.0 6.0 0.00 0.00 0.00 45 1010.4
20260504200840 73 333 3.0 4.0 0.00 0.00 0.00 50 1010.2
20260504200337 70 30 3.0 8.0 0.00 0.00 0.00 48 1010.4
20260504195833 71 174 0.0 7.0 0.00 0.00 0.00 48 1010.6
20260504195329 72 24 0.0 9.0 0.00 0.00 0.00 47 1010.8
20260504194826 72 287 2.0 7.0 0.00 0.00 0.00 46 1010.7
20260504194322 72 317 6.0 10.0 0.00 0.00 0.00 50 1010.5
20260504193818 72 174 2.0 8.0 0.00 0.00 0.00 47 1010.5
20260504193315 73 118 4.0 7.0 0.00 0.00 0.00 50 1010.6
20260504192814 73 323 2.0 6.0 0.00 0.00 0.00 50 1010.8
20260504192312 72 26 4.0 7.0 0.00 0.00 0.00 46 1010.7
20260504191810 71 75 1.0 8.0 0.00 0.00 0.00 53 1010.7
20260504191307 71 338 4.0 11.0 0.00 0.00 0.00 48 1010.9
20260504190808 71 22 2.0 6.0 0.00 0.00 0.00 51 1011.2
20260504190304 70 92 3.0 8.0 0.00 0.00 0.00 50 1010.7
20260504185800 71 328 5.0 11.0 0.00 0.00 0.00 47 1010.9
20260504185258 71 145 4.0 8.0 0.00 0.00 0.00 47 1011.4
20260504184754 71 339 4.0 6.0 0.00 0.00 0.00 47 1011.2
20260504184249 71 245 4.0 11.0 0.00 0.00 0.00 50 1011.2
20260504183745 71 314 3.0 8.0 0.00 0.00 0.00 50 1011.5
20260504183242 70 341 7.0 9.0 0.00 0.00 0.00 49 1011.5
20260504182741 70 124 6.0 10.0 0.00 0.00 0.00 49 1011.3
20260504182238 71 50 8.0 9.0 0.00 0.00 0.00 49 1011.4
20260504181735 71 40 4.0 8.0 0.00 0.00 0.00 49 1011.5
20260504181232 69 298 6.0 8.0 0.00 0.00 0.00 54 1011.5
20260504180731 69 118 1.0 8.0 0.00 0.00 0.00 49 1011.6
20260504180230 70 314 5.0 7.0 0.00 0.00 0.00 50 1011.4
20260504175727 70 8 4.0 6.0 0.00 0.00 0.00 50 1011.6
20260504175223 70 316 2.0 4.0 0.00 0.00 0.00 53 1011.8
20260504174722 69 349 3.0 3.0 0.00 0.00 0.00 50 1011.8
20260504174219 69 40 1.0 6.0 0.00 0.00 0.00 54 1012.0
20260504173715 70 158 2.0 14.0 0.00 0.00 0.00 52 1011.7
20260504173213 70 249 2.0 3.0 0.00 0.00 0.00 50 1011.6
20260504172709 69 23 0.0 6.0 0.00 0.00 0.00 52 1011.9
20260504172205 69 2 4.0 7.0 0.00 0.00 0.00 52 1012.1
20260504171702 69 14 3.0 4.0 0.00 0.00 0.00 49 1011.9
20260504171159 68 221 4.0 8.0 0.00 0.00 0.00 49 1012.0
20260504170655 69 320 1.0 17.0 0.00 0.00 0.00 51 1012.2
20260504170153 68 143 5.0 9.0 0.00 0.00 0.00 49 1012.2
20260504160112 67 357 7.0 11.0 0.00 0.00 0.00 50 1013.0
20260504151045 64 120 2.0 3.0 0.00 0.00 0.00 51 1013.5
20260504150542 64 317 2.0 10.0 0.00 0.00 0.00 47 1013.3
20260504141008 60 320 4.0 13.0 0.00 0.00 0.00 52 1013.6
20260504140505 60 15 3.0 8.0 0.00 0.00 0.00 55 1013.6
20260504130429 55 341 3.0 8.0 0.00 0.00 0.00 58 1014.3
20260504110311 47 224 0.0 0.0 0.00 0.00 0.00 67 1015.3
20260504100229 48 82 0.0 0.0 0.00 0.00 0.00 65 1015.5
20260504081622 48 196 0.0 1.0 0.00 0.00 0.00 63 1016.0
20260504081118 47 217 0.0 0.0 0.00 0.00 0.00 63 1016.3
20260504080615 47 113 0.0 0.0 0.00 0.00 0.00 61 1016.2
20260504080111 47 96 0.0 0.0 0.00 0.00 0.00 61 1016.1
20260504050426 45 239 0.0 0.0 0.00 0.00 0.00 73 1016.8
20260504045919 45 240 0.0 0.0 0.00 0.00 0.00 74 1016.9
20260504045414 45 256 0.0 0.0 0.00 0.00 0.00 74 1017.0
20260504044911 45 246 0.0 0.0 0.00 0.00 0.00 74 1016.8
20260504044408 45 246 0.0 0.0 0.00 0.00 0.00 76 1017.0
20260504043906 44 246 0.0 0.0 0.00 0.00 0.00 75 1017.1
20260504043402 44 246 0.0 0.0 0.00 0.00 0.00 76 1016.9
20260504042900 44 261 0.0 0.0 0.00 0.00 0.00 75 1017.1
20260504042356 44 243 0.0 0.0 0.00 0.00 0.00 75 1016.9
20260504041852 44 243 0.0 0.0 0.00 0.00 0.00 76 1016.8
20260504041348 44 238 0.0 0.0 0.00 0.00 0.00 75 1016.9
20260504040845 43 234 0.0 0.0 0.00 0.00 0.00 73 1017.1
20260504040342 43 251 0.0 0.0 0.00 0.00 0.00 75 1017.1
20260504035838 42 253 0.0 0.0 0.00 0.00 0.00 74 1016.9